Time,TemperatureF,DewpointF,PressureIn,WindDirection,WindDirectionDegrees,WindSpeedMPH,WindSpeedGustMPH,Humidity,HourlyPrecipIn,Conditions,Clouds,dailyrainin,SoftwareType,DateUTC
2013-08-16 00:00:00,65.1,58.1,24.02,North,0,0.0,0.0,78,0.00,,,0.00,VWS V13.01,2013-08-16 04:00:00,
2013-08-16 01:00:00,63.8,58.2,24.02,North,0,0.0,0.0,82,0.00,,,0.00,VWS V13.01,2013-08-16 05:00:00,
2013-08-16 02:00:00,62.3,57.1,24.02,North,0,0.0,0.0,83,0.00,,,0.00,VWS V13.01,2013-08-16 06:00:00,
2013-08-16 03:00:00,61.8,57.2,24.02,North,0,0.0,0.0,85,0.00,,,0.00,VWS V13.01,2013-08-16 07:00:00,
2013-08-16 04:00:00,61.1,56.9,24.02,North,0,0.0,0.0,86,0.00,,,0.00,VWS V13.01,2013-08-16 08:00:00,
2013-08-16 05:00:00,60.2,56.3,25.40,North,0,0.0,0.0,87,0.00,,,0.00,VWS V13.01,2013-08-16 09:00:00,
2013-08-16 06:00:00,59.3,56.4,25.40,North,0,0.0,0.0,90,0.00,,,0.00,VWS V13.01,2013-08-16 10:00:00,
2013-08-16 07:00:00,59.0,56.1,25.40,North,0,0.0,0.0,90,0.00,,,0.00,VWS V13.01,2013-08-16 11:00:00,
2013-08-16 08:00:00,60.3,55.8,25.40,North,0,0.0,0.0,85,0.00,,,0.00,VWS V13.01,2013-08-16 12:00:00,
2013-08-16 09:00:00,65.4,56.9,25.40,ESE,112,0.0,4.0,74,0.00,,,0.00,VWS V13.01,2013-08-16 13:00:00,
2013-08-16 10:00:00,70.9,59.0,25.40,West,270,0.0,2.0,66,0.00,,,0.00,VWS V13.01,2013-08-16 14:00:00,
2013-08-16 11:00:00,76.7,56.1,25.40,ENE,68,0.0,2.0,49,0.00,,,0.00,VWS V13.01,2013-08-16 15:00:00,
2013-08-16 12:00:00,79.6,57.0,25.40,WNW,292,0.0,5.0,46,0.00,,,0.00,VWS V13.01,2013-08-16 16:00:00,
2013-08-16 13:00:00,80.6,57.3,25.40,West,270,0.0,6.0,45,0.00,,,0.00,VWS V13.01,2013-08-16 17:00:00,
2013-08-16 14:00:00,78.0,57.3,25.40,ENE,68,0.0,2.0,49,0.00,,,0.00,VWS V13.01,2013-08-16 18:00:00,
2013-08-16 15:00:00,77.4,56.8,25.40,ENE,68,0.0,7.0,49,0.00,,,0.00,VWS V13.01,2013-08-16 19:00:00,
2013-08-16 16:00:00,78.9,57.6,25.40,West,270,0.0,7.0,48,0.00,,,0.00,VWS V13.01,2013-08-16 20:00:00,
2013-08-16 17:00:00,78.8,56.9,25.40,West,270,0.0,7.0,47,0.00,,,0.00,VWS V13.01,2013-08-16 21:00:00,
2013-08-16 18:08:00,79.1,59.4,25.40,ENE,67,0.0,0.0,51,0.00,,,0.00,VWS V13.01,2013-08-16 22:08:00,
2013-08-16 18:13:00,78.9,59.2,25.40,ENE,67,0.0,0.0,51,0.00,,,0.00,VWS V13.01,2013-08-16 22:13:00,
2013-08-16 18:18:00,78.7,59.6,25.40,ENE,63,0.0,4.0,52,0.00,,,0.00,VWS V13.01,2013-08-16 22:18:00,
2013-08-16 18:19:00,78.7,59.6,25.40,ENE,63,0.0,4.0,52,0.00,,,0.00,VWS V13.01,2013-08-16 22:19:00,
2013-08-16 18:23:00,78.3,60.3,24.02,ENE,63,0.0,4.0,54,0.00,,,0.00,VWS V13.01,2013-08-16 22:23:00,
2013-08-16 18:24:00,78.2,60.2,24.02,ENE,63,0.0,4.0,54,0.00,,,0.00,VWS V13.01,2013-08-16 22:24:00,
2013-08-16 18:28:00,78.1,59.6,24.02,ENE,63,0.0,4.0,53,0.00,,,0.00,VWS V13.01,2013-08-16 22:28:00,
2013-08-16 18:29:00,78.1,59.6,24.02,ENE,63,0.0,4.0,53,0.00,,,0.00,VWS V13.01,2013-08-16 22:29:00,
2013-08-16 18:33:00,77.8,59.8,24.02,ENE,63,0.0,4.0,54,0.00,,,0.00,VWS V13.01,2013-08-16 22:33:00,
2013-08-16 18:34:00,77.8,59.8,24.02,ENE,63,0.0,4.0,54,0.00,,,0.00,VWS V13.01,2013-08-16 22:34:00,
2013-08-16 18:38:00,77.5,59.6,24.02,ENE,63,0.0,4.0,54,0.00,,,0.00,VWS V13.01,2013-08-16 22:38:00,
2013-08-16 18:39:00,77.4,59.5,24.02,ENE,63,0.0,4.0,54,0.00,,,0.00,VWS V13.01,2013-08-16 22:39:00,
2013-08-16 18:43:00,77.1,59.2,24.02,ENE,63,0.0,4.0,54,0.00,,,0.00,VWS V13.01,2013-08-16 22:43:00,
2013-08-16 18:44:00,77.1,59.2,24.02,ENE,63,0.0,4.0,54,0.00,,,0.00,VWS V13.01,2013-08-16 22:44:00,
2013-08-16 18:48:00,76.8,59.9,24.02,ENE,63,0.0,4.0,56,0.00,,,0.00,VWS V13.01,2013-08-16 22:48:00,
2013-08-16 18:49:00,76.7,59.8,24.02,ENE,63,0.0,4.0,56,0.00,,,0.00,VWS V13.01,2013-08-16 22:49:00,
2013-08-16 18:53:00,76.5,59.2,24.01,ENE,63,0.0,4.0,55,0.00,,,0.00,VWS V13.01,2013-08-16 22:53:00,
2013-08-16 18:54:00,76.4,59.1,24.01,ENE,63,0.0,4.0,55,0.00,,,0.00,VWS V13.01,2013-08-16 22:54:00,
2013-08-16 18:55:00,76.4,59.1,24.02,ENE,63,0.0,4.0,55,0.00,,,0.00,VWS V13.01,2013-08-16 22:55:00,
2013-08-16 18:58:00,76.1,58.3,24.02,ENE,63,0.0,4.0,54,0.00,,,0.00,VWS V13.01,2013-08-16 22:58:00,
2013-08-16 19:00:00,76.0,58.2,24.02,ENE,63,0.0,4.0,54,0.00,,,0.00,VWS V13.01,2013-08-16 23:00:00,
2013-08-16 19:03:00,75.7,57.9,24.05,ENE,63,0.0,4.0,54,0.00,,,0.00,VWS V13.01,2013-08-16 23:03:00,
2013-08-16 19:05:00,75.6,58.3,24.05,ENE,63,0.0,0.0,55,0.00,,,0.00,VWS V13.01,2013-08-16 23:05:00,
2013-08-16 19:06:00,75.5,58.2,24.05,ENE,63,0.0,0.0,55,0.00,,,0.00,VWS V13.01,2013-08-16 23:06:00,
2013-08-16 19:09:00,75.4,58.6,24.04,ENE,63,0.0,0.0,56,0.00,,,0.00,VWS V13.01,2013-08-16 23:09:00,
2013-08-16 19:10:00,75.3,58.0,24.06,ENE,63,0.0,0.0,55,0.00,,,0.00,VWS V13.01,2013-08-16 23:10:00,
2013-08-16 19:11:00,75.3,58.5,24.06,ENE,63,0.0,0.0,56,0.00,,,0.00,VWS V13.01,2013-08-16 23:11:00,
2013-08-16 19:14:00,75.1,58.3,23.82,ENE,63,0.0,0.0,56,0.00,,,0.00,VWS V13.01,2013-08-16 23:14:00,
2013-08-16 19:15:00,75.0,58.3,23.82,ENE,63,0.0,0.0,56,0.00,,,0.00,VWS V13.01,2013-08-16 23:15:00,
2013-08-16 19:16:00,74.9,58.2,23.82,ENE,63,0.0,0.0,56,0.00,,,0.00,VWS V13.01,2013-08-16 23:16:00,
2013-08-16 19:17:00,74.5,58.3,25.35,ENE,63,0.0,1.0,57,0.00,,,0.00,VWS V13.01,2013-08-16 23:17:00,
2013-08-16 19:19:00,74.7,58.0,25.35,ENE,63,0.0,0.0,56,0.00,,,0.00,VWS V13.01,2013-08-16 23:19:00,
2013-08-16 19:20:00,74.7,58.0,25.35,ENE,63,0.0,0.0,56,0.00,,,0.00,VWS V13.01,2013-08-16 23:20:00,
2013-08-16 19:21:00,74.6,57.9,25.35,ENE,63,0.0,1.0,56,0.00,,,0.00,VWS V13.01,2013-08-16 23:21:00,
2013-08-16 23:00:00,43.8,33.6,24.02,West,270,2.0,9.0,67,0.10,,,0.14,VWS V13.01,2013-08-17 03:00:00,